User: anonymous   Login
Location: Unspecified
(0.0000°N, 0.0000°E)
Time: 03:20:49
(UTC+01:00)
Language:

Orbus 21S - Orbit

View from above orbital plane
View from above orbital plane
View from above satellite
View from above satellite

Ground track
Ground track

The orbit data is extracted from the following two-line orbital elements,

1 20669U 90056C   14324.49146269  .00001511  00000-0  10121-2 0  4167
2 20669 024.0798 118.3273 7124025 069.6082 355.8753 02.44762408204214
Epoch (UTC): 20 November 2014 11:47:42
Eccentricity: 0.7124025
inclination: 24.0798°
perigee height: 311 km
apogee height: 33448 km
right ascension of ascending node: 118.3273°
argument of perigee: 69.6082°
revolutions per day: 2.44762408
mean anomaly at epoch: 355.8753°
orbit number at epoch: 20421

The dashed part of the orbit path shows where the satellite is in the earth's shadow,  

DLR